Tracking 28365 objects as of 6-Dec-2023
HD Live streaming from Space Station
objects crossing your sky now

XJS G

Track XJS G now!
10-day predictions


NORAD ID: 45611
Int'l Code: 2020-032A
Perigee: 468.8 km
Apogee: 473.9 km
Inclination: 35.0 °
Period: 93.9 minutes
Semi major axis: 6842 km
RCS: Unknown
Launch date: May 29, 2020
Source: People's Republic of China (PRC)
Launch site: Xichang Space Center, China (XSC)
Your satellite tracking list
Your tracking list is empty




NASA's NSSDC Master Catalog

Two Line Element Set (TLE):
1 45611U 20032A   23339.77081230  .00030768  00000-0  91143-3 0  9997
2 45611  35.0391 220.6888 0003659 114.1136 297.8887 15.33892490197532
Source of the keplerian elements: AFSPC